Overview Statistics Trail Chart Weather Telemetry Raw packets
 

This is the latest recevied weather packets stored in our database for station/object W0CHP-13. If no packets are shown the sender has not sent any weather packets the latest 10 day(s).

<< 34 35 36 37 38 39 40 >>
Time Temp. Humidity Pressure Rain* Wind** Luminosity Snow
1788181215 23.89° C 84% 1007.8 hPa 0 mm - 36 W/m² -
1788180617 23.89° C 86% 1007.9 hPa 0 mm - 33 W/m² -
1788180016 23.33° C 86% 1008.2 hPa 0 mm - 31 W/m² -
1788179416 23.89° C 84% 1007.8 hPa 0 mm - 27 W/m² -
1788178818 23.89° C 84% 1007.8 hPa 0 mm - 23 W/m² -
1788178217 23.89° C 84% 1007.5 hPa 0 mm - 21 W/m² -
1788177615 23.89° C 83% 1007.8 hPa 0 mm - 19 W/m² -
1788177017 23.33° C 84% 1007.6 hPa 0 mm - 15 W/m² -
1788176416 23.33° C 83% 1007.2 hPa 0 mm - 9 W/m² -
1788175817 23.89° C 84% 1007.5 hPa 0 mm - 3 W/m² -
1788175216 23.89° C 82% 1007.5 hPa 0 mm - 1 W/m² -
1788174617 23.89° C 82% 1007.5 hPa 0 mm - 0 W/m² -
1788174018 23.89° C 83% 1007.5 hPa 0 mm - 0 W/m² -
1788173416 23.89° C 82% 1007.8 hPa 0 mm - 0 W/m² -
1788172819 23.89° C 81% 1007.2 hPa 0 mm - 0 W/m² -
1788172217 23.89° C 82% 1007.2 hPa 0 mm - 0 W/m² -
1788171615 24.44° C 82% 1007.2 hPa 0 mm - 0 W/m² -
1788171017 24.44° C 81% 1007.5 hPa 0 mm - 0 W/m² -
1788170417 24.44° C 81% 1007.5 hPa 0 mm - 0 W/m² -
1788169818 24.44° C 81% 1007.5 hPa 0 mm - 0 W/m² -
1788169215 24.44° C 80% 1007.2 hPa 0 mm - 0 W/m² -
1788168617 24.44° C 81% 1007.5 hPa 0 mm - 0 W/m² -
1788168016 24.44° C 80% 1007.5 hPa 0 mm - 0 W/m² -
1788167417 24.44° C 81% 1007.2 hPa 0 mm - 0 W/m² -
1788166815 24.44° C 80% 1007.5 hPa 0 mm - 0 W/m² -

* Rain latest hour (hover to see other rain measurements)
** Current wind speed in m/s (hover to see current wind gust speed)